Quincy, IL

9:22 AM CST on November 13, 2019 (GMT -0600)
Quincy Regional-Baldwin

Weather History for KUIN - October, 2019

Change the Weather History Date:

Wednesday, October 23, 2019

  Actual Average Record
Temperature  
Mean Temperature 53 °F 53 °F  
Max Temperature 66 °F 63 °F 86 °F (1939)
Min Temperature 39 °F 42 °F 23 °F (1981)
Degree Days  
Heating Degree Days 12 13  
Month to date heating degree days 224 222  
Since 1 July heating degree days 228 309  
Cooling Degree Days 0 0  
Month to date cooling degree days 28 14  
Year to date cooling degree days 1346 1090  
Growing Degree Days 3 (Base 50)    
Moisture  
Dew Point 38 °F    
Average Humidity 57    
Maximum Humidity 83    
Minimum Humidity 36    
Precipitation  
Precipitation 0.00 in 0.10 in 1.34 in (1957)
Month to date precipitation 1.72 2.25  
Year to date precipitation 37.81 31.30  
Sea Level Pressure  
Sea Level Pressure 29.93 in    
Wind  
Wind Speed 9 mph ()    
Max Wind Speed 23 mph    
Max Gust Speed 31 mph    
Visibility 10.0 miles    
Events      
T = Trace of Precipitation, MM = Missing Value Source: Averaged Metar Reports

Daily Weather History Graph

Daily Weather History Graph

Search for Another Location

Airport or City:

Astronomy

Oct. 23, 2019 Rise Set
Actual Time 7:23 AM CDT 6:14 PM CDT
Civil Twilight 6:55 AM CDT 6:41 PM CDT
Nautical Twilight 6:24 AM CDT 7:13 PM CDT
Astronomical Twilight 5:52 AM CDT 7:44 PM CDT
Moon 1:42 AM CDT (10/23) 4:04 PM CDT (10/23)
Length of Visible Light 11h 45m
Length of Day
10h 50m
Waning Crescent, 26% of the Moon is Illuminated
Oct 23
Waning Crescent
Oct 27
New
Nov 4
First Quarter
Nov 12
Full
Nov 19
Last Quarter

Hourly Weather History & Observations

Time (CDT) Temp. Windchill Dew Point Humidity Pressure Visibility Wind Dir Wind Speed Gust Speed Precip Events Conditions
12:54 AM 39.9 °F 34.5 °F 32.0 °F 73% 29.93 in 10.0 mi South 8.1 mph - N/A   Clear
1:54 AM 39.9 °F 33.9 °F 32.0 °F 73% 29.93 in 10.0 mi South 9.2 mph - N/A   Clear
2:54 AM 39.9 °F 34.5 °F 32.0 °F 73% 29.92 in 10.0 mi South 8.1 mph - N/A   Clear
3:54 AM 41.0 °F 35.2 °F 32.0 °F 70% 29.93 in 10.0 mi South 9.2 mph - N/A   Clear
4:54 AM 39.9 °F 34.5 °F 33.1 °F 77% 29.93 in 10.0 mi South 8.1 mph - N/A   Clear
5:54 AM 43.0 °F 38.8 °F 34.0 °F 71% 29.94 in 10.0 mi South 6.9 mph - N/A   Overcast
6:54 AM 45.0 °F 40.6 °F 35.1 °F 68% 29.94 in 10.0 mi South 8.1 mph - N/A   Overcast
7:54 AM 45.0 °F 41.2 °F 35.1 °F 68% 29.93 in 10.0 mi South 6.9 mph - N/A   Clear
8:54 AM 48.9 °F - 36.0 °F 61% 29.95 in 10.0 mi SSW 12.7 mph - N/A   Clear
9:54 AM 53.1 °F - 36.0 °F 52% 29.96 in 10.0 mi SW 16.1 mph - N/A   Scattered Clouds
10:54 AM 55.9 °F - 37.0 °F 49% 29.95 in 10.0 mi SSW 12.7 mph - N/A   Scattered Clouds
11:54 AM 59.0 °F - 39.0 °F 48% 29.94 in 10.0 mi SSW 17.3 mph 24.2 mph N/A   Clear
12:54 PM 62.1 °F - 37.0 °F 39% 29.91 in 10.0 mi SW 20.7 mph 28.8 mph N/A   Clear
1:54 PM 64.0 °F - 39.0 °F 40% 29.88 in 10.0 mi SW 10.4 mph - N/A   Clear
2:54 PM 66.9 °F - 39.0 °F 36% 29.85 in 10.0 mi SSW 18.4 mph 25.3 mph N/A   Clear
3:54 PM 66.0 °F - 39.9 °F 38% 29.84 in 10.0 mi South 11.5 mph 21.9 mph N/A   Clear
4:54 PM 66.0 °F - 41.0 °F 40% 29.84 in 10.0 mi South 11.5 mph - N/A   Clear
5:54 PM 64.0 °F - 42.1 °F 45% 29.86 in 10.0 mi SSW 10.4 mph - N/A   Clear
6:54 PM 64.0 °F - 42.1 °F 45% 29.89 in 10.0 mi SW 8.1 mph - N/A   Overcast
7:54 PM 61.0 °F - 42.1 °F 50% 29.92 in 10.0 mi SW 8.1 mph - N/A   Clear
8:54 PM 61.0 °F - 42.1 °F 50% 29.94 in 10.0 mi WSW 11.5 mph 21.9 mph N/A   Scattered Clouds
9:54 PM 57.9 °F - 42.1 °F 56% 29.99 in 10.0 mi West 9.2 mph - N/A   Clear
10:54 PM 54.0 °F - 42.1 °F 64% 30.03 in 10.0 mi NW 15.0 mph - N/A   Clear
11:54 PM 48.9 °F - 44.1 °F 83% 30.08 in 10.0 mi NW 15.0 mph - N/A   Partly Cloudy